This demonstration page uses our WeatherBlox Daily Observations layout. Learn more.

Left ArrowRight Arrow

Hourly Observations for December 19, 2020

Temp ( °F °C ) Dew Point ( °F °C ) Humidity (%) Winds ( mph kmh ) Pressure ( in mb ) Visibility ( mi km ) Precip ( " mm )
12:52 am 00:52 Cloudy 32 0 27 -2.8 82 82 NNW 13 20 30.10 1019 10 16 0.00 0.00
1:52 am 01:52 Cloudy 31 -0.6 26 -3.3 82 82 NNW 15 24 30.11 1020 10 16 0.00 0.00
2:52 am 02:52 Cloudy 28 -2.2 23 -5 81 81 NNW 14 22 30.13 1020 10 16 0.00 0.00
3:52 am 03:52 Mostly Cloudy 25 -3.9 18 -7.8 75 75 NNW 16 26 30.14 1021 10 16 0.00 0.00
4:52 am 04:52 Mostly Cloudy 23 -5 17 -8.3 78 78 NW 13 20 30.16 1021 10 16 0.00 0.00
5:01 am 05:01 Partly Cloudy 22 -5.6 17 -8.3 82 82 NW 13 20 30.21 1023 10 16 0.00 0.00
5:33 am 05:33 Cloudy 23 -5 17 -8.3 78 78 NW 12 19 30.20 1023 10 16 0.00 0.00
5:52 am 05:52 Cloudy 23 -5 17 -8.3 78 78 NNW 16 26 30.17 1022 10 16 0.00 0.00
6:52 am 06:52 Cloudy 22 -5.6 18 -7.8 85 85 NNW 14 22 30.18 1022 10 16 0.00 0.00
7:52 am 07:52 Mostly Cloudy 20 -6.7 15 -9.4 81 81 NNW 9 15 30.19 1022 10 16 0.00 0.00
8:34 am 08:34 Mostly Cloudy 18 -7.8 13 -10.6 81 81 NW 8 13 30.25 1024 10 16 0.00 0.00
8:52 am 08:52 Mostly Cloudy 19 -7.2 14 -10 81 81 NW 6 9 30.19 1022 10 16 0.00 0.00
9:52 am 09:52 Mostly Sunny 21 -6.1 14 -10 74 74 N 6 9 30.19 1022 10 16 0.00 0.00
10:52 am 10:52 Sunny 24 -4.4 16 -8.9 71 71 Calm 30.18 1022 10 16 0.00 0.00
11:52 am 11:52 Sunny 28 -2.2 16 -8.9 60 60 W 7 11 30.15 1021 10 16 0.00 0.00
12:52 pm 12:52 Sunny 29 -1.7 16 -8.9 58 58 NW 5 7 30.12 1020 10 16 0.00 0.00
1:52 pm 13:52 Sunny 31 -0.6 17 -8.3 56 56 Calm 30.10 1019 10 16 0.00 0.00
2:52 pm 14:52 Sunny 31 -0.6 18 -7.8 59 59 SE 3 6 30.07 1018 10 16 0.00 0.00
3:52 pm 15:52 Sunny 32 0 19 -7.2 59 59 SSE 10 17 30.06 1018 10 16 0.00 0.00
4:52 pm 16:52 Sunny 31 -0.6 19 -7.2 61 61 S 7 11 30.05 1018 10 16 0.00 0.00
5:52 pm 17:52 Clear 27 -2.8 20 -6.7 75 75 SSE 9 15 30.03 1017 10 16 0.00 0.00
6:52 pm 18:52 Clear 26 -3.3 19 -7.2 75 75 SSE 9 15 30.02 1017 10 16 0.00 0.00
7:52 pm 19:52 Clear 27 -2.8 20 -6.7 75 75 SSE 9 15 30.02 1017 10 16 0.00 0.00
8:52 pm 20:52 Clear 28 -2.2 21 -6.1 75 75 SSE 10 17 30.02 1017 10 16 0.00 0.00
9:52 pm 21:52 Clear 27 -2.8 21 -6.1 78 78 SSE 10 17 30.00 1016 10 16 0.00 0.00
10:52 pm 22:52 Clear 26 -3.3 21 -6.1 81 81 SSE 10 17 29.98 1015 10 16 0.00 0.00
11:52 pm 23:52 Clear 25 -3.9 21 -6.1 85 85 SSE 9 15 29.96 1015 10 16 0.00 0.00

Powered by AerisWeather